Location: Days
(41.3591°N, 106.7339°W)
Time: 02:53:45
(UTC+00:00)

METEOR 2-5 DEB - Visible Passes

Search period start: 10 December 2022 00:00
Search period end: 20 December 2022 00:00
Orbit: 589 x 601 km, 81.2° (Epoch: 06 December)

Date Brightness Start Highest point End Pass type
(mag) Time Alt. Az. Time Alt. Az. Time Alt. Az.
10 Dec ? 00:52:18 10° NW 00:55:47 24° W 00:59:15 10° SW visible
10 Dec ? 11:44:17 10° ESE 11:45:58 12° E 11:47:39 10° ENE visible
10 Dec ? 13:18:45 10° SSW 13:22:55 53° WNW 13:27:08 10° N visible
11 Dec ? 01:02:34 10° NW 01:05:09 16° W 01:07:43 10° SW visible
11 Dec ? 11:52:15 10° SE 11:55:16 19° E 11:58:18 10° NE visible
11 Dec ? 13:28:36 10° SW 13:32:29 33° WNW 13:36:24 10° N visible
12 Dec ? 12:00:52 10° SSE 12:04:33 29° E 12:08:16 10° NNE visible
12 Dec ? 13:38:41 10° WSW 13:42:02 22° WNW 13:45:25 10° NNW visible
13 Dec ? 12:09:44 10° SSE 12:13:49 46° E 12:17:56 10° NNE visible
13 Dec ? 13:49:08 10° WSW 13:51:35 15° WNW 13:54:02 10° NNW visible
14 Dec ? 12:18:49 10° S 12:23:04 75° E 12:27:22 10° NNE visible
15 Dec ? 00:01:40 10° NNW 00:05:25 30° W 00:09:08 10° SSW visible
15 Dec ? 12:28:04 10° SSW 12:32:18 68° W 12:36:35 10° N visible
16 Dec ? 00:11:23 10° NW 00:14:28 19° W 00:17:32 10° SW visible
16 Dec ? 11:06:18 12° ENE 11:06:18 12° ENE 11:06:56 10° NE visible
16 Dec ? 12:37:28 10° SSW 12:43:18 27° NNW 12:45:36 10° N visible
17 Dec ? 00:21:36 10° WNW 00:23:25 13° W 00:25:15 10° WSW visible
